C/2022 A2 ( PanSTARRS )

Japanese version
Home page
Updated on November 26, 2022

---------------------------------------------------------------------

* Profile

Discovery Date January 10, 2022
Magnitude 20.5 mag
Discoverer Pan-STARRS 2 telescope (Haleakala)

* Pictures

* Orbital Elements

Epoch 2022 Aug. 9.0 TT = JDT 2459800.5
T 2023 Feb. 18.25484 TT                                 Rudenko
q   1.7353335            (2000.0)            P               Q
z  -0.0002895      Peri.   88.36173     +0.01730813     +0.99012121
 +/-0.0000007      Node   171.58015     -0.09141782     -0.13701252
e   1.0005023      Incl.  108.14811     +0.99566220     -0.02979176
>From 474 observations 2022 Jan. 9-Oct. 15, mean residual 0".4.

* Finding Charts

* Magnitudes Graph

        m1 = 9.0 + 5 log d + 10.0 log r

---------------------------------------------------------------------

The orbital elements are published on M.P.E.C. 2022-U146.
The charts are made with StellaNavigator Ver.10 (AstroArts).
The magnitudes graphs are made with Comet for Windows.

---------------------------------------------------------------------

Copyright(C) Seiichi Yoshida (comet@aerith.net). All rights reserved.